Regional Weather Roundup
Issued by NWS Newport/Morehead, NC

Current Version | Previous Version | Graphics & Text | Print | Product List | Glossary Off
Versions: 1 2 3 4 5 6 7 8 9 10 11 12 13 14 15 16 17 18 19 20 21 22 23 24 25 26 27 28 29 30 31 32 33 34 35 36 37 38 39 40 41 42 43 44 45 46 47 48 49 50

000
ASUS42 KMHX 222110
RWRMHX
WEATHER ROUNDUP FOR EASTERN NORTH CAROLINA
NATIONAL WEATHER SERVICE NEWPORT/MOREHEAD CITY NC
400 PM EST SAT NOV 22 2014

NOTE: "FAIR" INDICATES FEW OR NO CLOUDS BELOW 12,000 FEET
WITH NO SIGNIFICANT WEATHER AND/OR OBSTRUCTIONS TO VISIBILITY

NCZ015>017-031-032-045>047-102-103-222200-
NORTH COAST

CITY           SKY/WX    TMP DP  RH WIND       PRES   REMARKS
EDENTON        CLEAR     54  24  31 SW3       30.42F
ELIZABETH CITY CLEAR     53  28  38 SW7       30.43S
KITTY HAWK     CLEAR     51  35  53 CALM      30.41F
MANTEO         CLEAR     50  35  56 S6        30.43F

$$

NCZ045>047-081-094-103-104-222200-
CENTRAL COAST

CITY           SKY/WX    TMP DP  RH WIND       PRES   REMARKS
FRISCO         CLEAR     51  42  71 NE5       30.43F
SWANQUARTER      N/A     52 N/A N/A S5        30.39S

$$

NCZ095-097-098-100-101-222200-
SOUTHERN COAST

CITY           SKY/WX    TMP DP  RH WIND       PRES   REMARKS
BEAUFORT       CLEAR     54  39  57 E6        30.42F
CEDAR ISLAND     N/A     50 N/A N/A E3        30.47S
JACKSONVILLE   SUNNY     56  36  47 E6        30.41F
PINEY ISLAND   CLEAR     52  37  56 E5        30.43F
WILMINGTON     SUNNY     57  39  51 E5        30.40F


$$

NCZ011>013-027>030-043-044-078>080-089-090>093-098-222200-
COASTAL PLAIN

CITY           SKY/WX    TMP DP  RH WIND       PRES   REMARKS
AHOSKIE        PTCLDY    50  14  24 CALM      30.42S
CLINTON        SUNNY     58  28  32 CALM      30.41S
ELIZABETHTOWN  SUNNY     59  29  32 E3        30.40F
GOLDSBORO      SUNNY     58  21  23 CALM      30.40F
GREENVILLE     CLEAR     55  18  22 CALM      30.42S
HAVELOCK       CLEAR     56  36  47 E6        30.43S
KENANSVILLE    SUNNY     56  24  28 CALM      30.42S
KINSTON        CLEAR     57  18  21 SW3       30.42F
NEW BERN       CLEAR     57  29  34 E5        30.43F
RICHLANDS      SUNNY     57  28  33 CALM      30.41F
ROCKY MOUNT    CLEAR     54  11  18 S5        30.41F
WASHINGTON     CLEAR     55  14  19 CALM      30.42S
WHITEVILLE     SUNNY     60  37  42 SE5       30.39S

$$

AMZ130-135-150-152-154-156-158-170-250-252-270-ANZ085-086-088-633-658-670-222200-
MARINE OBSERVATIONS

STATION/POSITION TIME  TEMP    WIND        PRES    WAVE   SWELL
                       AIR SEA DIR/SP/G            HT/PER HT/PER
                 (UTC) (F)     (DEG/KT/KT) (MB)    (FT/S) (FT/S)
CHESAPEAKE LIGHT 2000   47     200/ 13/ 15 1030.4
64 E VA BEACH    2100   51 61  210/ 10/ 12 1029.8    2/ 8   2/ 8
DUCK             2100   50 55  200/  5/  6 1029.4
2 E DUCK         2100      56                N/A     2/ 6
10 NE DUCK       2100      57                N/A     2/ 6
OREGON INLET     2100   52 50  160/  6/  9 1030.4
13E OREGON INLT  2100      61                N/A     3/ 6
HATTERAS CG      2100   50 51   10/  5/  6 1030.8
DIAMOND BUOY     2100   59      30/  2/  4 1030.6    3/ 8   3/ 8
17 S OCRACOKE    NOT AVBL
CAPE LOOKOUT     2000   53      40/  8/ 10 1030.3
BEAUFORT LAB     2100   53 52  120/  6/  8 1029.4
30 SE NEW RIVER  2000   55 68   50/ 10/ 14 1029.9
5 SE WRIGHTSVLE  2000   54 60   60/  8/ 10 1029.9
225 S CAPE HAT   2047   64 73   80/ 16/ 19 1029.3    5/ 9   3/ 9
41 SE CHARLESTON 2100   65 75   50/ 17/ 21 1026.9    4/ 6   2/ 8

$$



USA.gov is the U.S. government's official web portal to all federal, state and local government web resources and services.